TimeCDT,TemperatureF,Dew PointF,Humidity,Sea Level PressureIn,VisibilityMPH,Wind Direction,Wind SpeedMPH,Gust SpeedMPH,PrecipitationIn,Events,Conditions,WindDirDegrees,DateUTC
12:15 AM,76.1,72.5,89,29.99,7.0,ESE,4.6,-,N/A,,Mostly Cloudy,120,2013-07-07 05:15:00
12:35 AM,75.9,72.5,89,29.98,7.0,ENE,5.8,-,N/A,,Scattered Clouds,70,2013-07-07 05:35:00
12:55 AM,76.1,72.5,89,29.98,7.0,East,5.8,-,N/A,,Scattered Clouds,100,2013-07-07 05:55:00
1:15 AM,75.7,72.5,90,29.98,10.0,ESE,4.6,-,N/A,,Scattered Clouds,120,2013-07-07 06:15:00
1:35 AM,76.1,72.7,89,29.98,10.0,ESE,5.8,-,N/A,,Clear,110,2013-07-07 06:35:00
1:55 AM,76.1,72.7,89,29.98,10.0,SE,4.6,-,N/A,,Clear,130,2013-07-07 06:55:00
2:15 AM,76.3,72.9,89,29.99,10.0,Calm,Calm,-,N/A,,Mostly Cloudy,0,2013-07-07 07:15:00
2:35 AM,76.5,73.0,89,29.98,10.0,SE,3.5,-,N/A,,Overcast,130,2013-07-07 07:35:00
2:55 AM,76.5,73.2,90,29.99,7.0,ESE,3.5,-,N/A,,Overcast,120,2013-07-07 07:55:00
3:15 AM,76.3,73.0,90,29.99,10.0,ESE,3.5,-,N/A,,Scattered Clouds,120,2013-07-07 08:15:00
3:35 AM,76.1,72.9,90,29.99,7.0,ESE,5.8,-,N/A,,Clear,120,2013-07-07 08:35:00
3:55 AM,76.3,73.0,90,29.99,7.0,SE,4.6,-,N/A,,Scattered Clouds,130,2013-07-07 08:55:00
4:15 AM,76.5,73.2,90,29.99,7.0,SE,4.6,-,N/A,,Scattered Clouds,130,2013-07-07 09:15:00
4:35 AM,76.8,72.7,87,29.99,10.0,SE,4.6,-,N/A,,Clear,140,2013-07-07 09:35:00
4:55 AM,77.0,72.5,86,29.99,10.0,Calm,Calm,-,N/A,,Scattered Clouds,0,2013-07-07 09:55:00
5:15 AM,77.0,72.5,86,30.00,10.0,Calm,Calm,-,N/A,,Scattered Clouds,0,2013-07-07 10:15:00
5:35 AM,76.5,72.1,86,30.00,7.0,Calm,Calm,-,N/A,,Clear,0,2013-07-07 10:35:00
5:55 AM,76.6,72.3,86,30.00,7.0,Calm,Calm,-,N/A,,Clear,0,2013-07-07 10:55:00
6:55 AM,77.0,73.4,89,30.01,6.0,ESE,5.8,-,N/A,,Scattered Clouds,120,2013-07-07 11:55:00
7:55 AM,80.6,73.4,79,30.04,6.0,SSE,5.8,-,N/A,,Scattered Clouds,160,2013-07-07 12:55:00
8:55 AM,82.4,73.4,74,30.05,6.0,South,5.8,-,N/A,,Scattered Clouds,180,2013-07-07 13:55:00
9:50 AM,82.4,73.4,74,30.06,7.0,SSE,6.9,-,N/A,,Scattered Clouds,160,2013-07-07 14:50:00
10:50 AM,84.2,71.6,66,30.07,7.0,SSE,9.2,-,N/A,,Scattered Clouds,160,2013-07-07 15:50:00
11:55 AM,86.0,71.6,62,30.07,7.0,SE,9.2,-,N/A,,Mostly Cloudy,130,2013-07-07 16:55:00
12:55 PM,87.8,71.6,58,30.06,7.0,South,11.5,-,N/A,,Mostly Cloudy,170,2013-07-07 17:55:00
1:50 PM,87.8,71.6,58,30.05,7.0,SSE,15.0,-,N/A,,Scattered Clouds,150,2013-07-07 18:50:00
2:50 PM,86.0,71.6,62,30.06,7.0,SSE,9.2,-,N/A,,Scattered Clouds,150,2013-07-07 19:50:00
3:50 PM,86.0,73.4,66,30.06,7.0,SE,9.2,-,N/A,,Scattered Clouds,140,2013-07-07 20:50:00
4:50 PM,84.2,73.4,70,30.05,7.0,SE,9.2,-,N/A,,Scattered Clouds,140,2013-07-07 21:50:00
5:50 PM,82.4,71.6,70,30.05,7.0,SE,5.8,-,N/A,,Mostly Cloudy,140,2013-07-07 22:50:00
6:50 PM,77.0,71.6,83,30.08,7.0,West,9.2,-,N/A,,Overcast,280,2013-07-07 23:50:00
7:15 PM,75.6,70.7,85,30.09,10.0,West,3.5,-,N/A,Rain,Rain,260,2013-07-08 00:15:00
7:35 PM,74.7,70.7,87,30.10,5.0,WSW,5.8,-,0.01,Rain,Light Rain,240,2013-07-08 00:35:00
7:55 PM,74.7,70.9,88,30.10,7.0,SSE,4.6,-,0.03,Rain,Rain,160,2013-07-08 00:55:00
8:15 PM,74.3,70.9,89,30.08,7.0,Calm,Calm,-,0.01,Rain,Rain,0,2013-07-08 01:15:00
8:35 PM,74.3,70.9,89,30.09,7.0,Calm,Calm,-,0.03,Rain,Rain,0,2013-07-08 01:35:00
8:55 PM,74.5,71.1,89,30.09,5.0,Calm,Calm,-,0.05,Rain,Rain,0,2013-07-08 01:55:00
9:15 PM,74.5,71.2,90,30.10,10.0,ENE,3.5,-,0.02,Rain,Light Rain,70,2013-07-08 02:15:00
9:35 PM,74.5,71.2,90,30.11,10.0,NNE,3.5,-,0.03,,Light Drizzle,30,2013-07-08 02:35:00
9:55 PM,74.5,71.1,89,30.11,10.0,Calm,Calm,-,0.05,,Scattered Clouds,0,2013-07-08 02:55:00
10:15 PM,74.8,71.6,90,30.10,7.0,Calm,Calm,-,0.01,,Clear,0,2013-07-08 03:15:00
10:35 PM,74.7,71.2,89,30.10,10.0,NE,3.5,-,0.02,,Clear,40,2013-07-08 03:35:00
10:55 PM,74.5,71.2,90,30.09,10.0,NNE,8.1,-,0.02,,Scattered Clouds,30,2013-07-08 03:55:00
11:15 PM,74.5,71.2,90,30.09,10.0,ENE,4.6,-,N/A,,Mostly Cloudy,60,2013-07-08 04:15:00
11:35 PM,74.7,71.6,90,30.09,10.0,ENE,5.8,-,N/A,,Scattered Clouds,60,2013-07-08 04:35:00
11:55 PM,74.7,71.2,89,30.09,7.0,East,4.6,-,N/A,,Scattered Clouds,80,2013-07-08 04:55:00